User: anonymous   Login
Location: Newark
(43.0000°N, 1.6781°W)
Time: 17:21:47
(UTC+00:00)
Language:

Explorer 11/Cluster Stage 4 - Orbit

View from above orbital plane
View from above orbital plane
View from above satellite
View from above satellite

Ground track
Ground track

The orbit data is extracted from the following two-line orbital elements,

1 00107U 61013A   22266.80483982  .00002062  00000-0  25715-3 0  9992
2 00107  28.7854 179.8419 0540968 121.5036 243.9540 14.10441910 83196
Epoch (UTC): 23 September 2022 19:18:58
Eccentricity: 0.0540968
inclination: 28.7854°
perigee height: 466 km
apogee height: 1249 km
right ascension of ascending node: 179.8419°
argument of perigee: 121.5036°
revolutions per day: 14.10441910
mean anomaly at epoch: 243.9540°
orbit number at epoch: 8319

The dashed part of the orbit path shows where the satellite is in the earth's shadow,  

DLR